UMKA 1 (RS40S)

Last updated on Sun Apr 12 2026 00:03:15 GMT+0000 (Coordinated Universal Time)

1 57172U 23091G 26101.49123301 .00005305 00000+0 24840-3 0 9993 2 57172 97.5115 160.4622 0012591 359.8841 0.2389 15.20094684153874
UTC large
Height (km)
Speed (km/s)
/
Latitude / Longitude
Inclination (degrees)
Orbital Period (minutes)
Azimuth
Elevation
Range (km)
Doppler Factor

Next 0 passes for location: London (51.5072 / 0.1276)

Sorry there are no passes over London.